Regional Weather Roundup
Issued by NWS

Home | Current Version | Previous Version | Text Only | Print | Product List | Glossary Off
Versions: 1 2 3 4 5 6 7 8 9 10 11 12 13 14 15 16 17 18 19 20 21 22 23 24 25 26 27 28 29 30 31 32 33 34 35 36 37 38 39 40 41 42 43 44 45 46 47 48 49 50

000
ASUS43 KLMK 121902
RWRKY
KENTUCKY REGIONAL WEATHER ROUNDUP
NATIONAL WEATHER SERVICE LOUISVILLE KY
200 PM EST TUE DEC 12 2017

NOTE "FAIR" INDICATES FEW OR NO CLOUDS BELOW 12,000 FEET
WITH NO SIGNIFICANT WEATHER AND/OR OBSTRUCTIONS TO VISIBILITY.

KYZ001>023-026-027-061>063-070>075-122000-
WESTERN AND SOUTH CENTRAL KENTUCKY

CITY           SKY/WX    TMP DP  RH WIND       PRES   REMARKS
PADUCAH        MOSUNNY   39   9  29 N15G23    30.16F WCI  31
HENDERSON      SUNNY     35  14  42 NW16      30.13F WCI  25
OWENSBORO      SUNNY     35  13  40 NW20G26   30.11S WCI  24
HOPKINSVILLE   SUNNY     38  15  37 NW18G26   30.11R WCI  29
BOWLING GREEN  MOSUNNY   38  16  40 NW8G25    30.07S WCI  32
GLASGOW        NOT AVBL
$$

KYZ024-025-028>034-038-045-046-053-122000-
NORTH CENTRAL KENTUCKY

CITY           SKY/WX    TMP DP  RH WIND       PRES   REMARKS
LOUISVILLE/SDF MOSUNNY   35   4  27 NW21G31   30.02S WCI  24
LOUISVILLE/LOU SUNNY     33   8  35 NW22G30   30.02S WCI  21
FORT KNOX      MOSUNNY   32   7  34 W17       30.01S WCI  21
$$

KYZ035>037-039>044-047>052-055>060-089>105-122000-
NORTHEAST KENTUCKY

CITY           SKY/WX    TMP DP  RH WIND       PRES   REMARKS
LEXINGTON      SUNNY     33  10  38 NW18G33   29.94S WCI  22
COVINGTON      PTSUNNY   27  12  53 NW17G29   29.94S WCI  14
FRANKFORT      MOSUNNY   33   8  35 NW13G28   29.96S WCI  24
$$

KYZ054-064>069-076>088-106>120-122000-
SOUTHEAST KENTUCKY

CITY           SKY/WX    TMP DP  RH WIND       PRES   REMARKS
JACKSON        PTSUNNY   32  18  56 W9G25     29.85F WCI  24
LONDON         CLOUDY    34  18  52 NW15G29   29.91F WCI  24
SOMERSET       NOT AVBL
MIDDLESBORO    CLOUDY    35  25  65 NW16      29.90F WCI  25
MONTICELLO     CLOUDY    35  19  52 W17G25    29.98F WCI  25
$$




USA.gov is the U.S. government's official web portal to all federal, state and local government web resources and services.